Content
SEND FEEDBACK

Daily
Averages
Monthly
Summary
United States of America

GREENWOOD - AIRPORT, MISSISSIPPI


Home > North America > United States > Mississippi
Elevation: 155 feet     Latitude: 33 30N     Longitude: 090 05W

WEATHER
 
SELECT A DAY
Number of Records: 208,351;   Date Range: 1/1/95 - 12/19/14
 
SHARE

PRINT THIS DATA

[ ← Previous Day ]
WEATHER ALMANAC - FEBRUARY 16, 2013
[ Next Day → ]
[ °C ]   °F
Weather ElementAverageHighLow
Temperature36.3 °F43 °F (11:53 am)25 °F (10:53 pm)
Dewpoint21.8 °F28 °F (1:53 am)17.1 °F (11:53 am)
Humidity57.8 %85 % (10:53 pm)35 % (11:53 am)
Barometer30.27 in30.30 in (9:53 am)30.21 in (1:53 am)
Wind Speed6.7 mph13.8 mph (12:53 pm)
Wind Gust20.7 mph (1:53 pm)
Weather ElementAverage
Visibility10 mi
Wind DirectionWSW (262.6 °)

Weather ElementTotal
Precipitation---
Heating Degree Days31 (Base 65)
Averaged from 23 records on February 16, 2013
WEATHER CONDITIONS BREAKOUT
WIND DIRECTION BREAKOUT
WEATHER BY HOUR - FEBRUARY 16, 2013
[ °C ]   °F
Local TimeTemperatureDewpointHumidityBarometerVisibilityWind DirectionWind SpeedGust SpeedPrecipitationEventsConditions
1:53 AM37.9 °F28.0 °F68 %30.21 in10.0 miNNW (330°)5.8 mphClear
2:53 AM37.9 °F26.1 °F62 %30.22 in10.0 miNNW (330°)6.9 mphClear
3:53 AM36.0 °F25.0 °F64 %30.22 in10.0 miNNW (330°)3.5 mphClear
4:53 AM35.1 °F25.0 °F67 %30.23 in10.0 miNNW (330°)6.9 mphClear
5:53 AM34.0 °F23.0 °F64 %30.25 in10.0 miNNW (330°)6.9 mphClear
6:53 AM32.0 °F21.9 °F66 %30.26 in10.0 miNW (310°)3.5 mphClear
7:53 AM36.0 °F21.9 °F57 %30.28 in10.0 miNNW (340°)6.9 mphClear
8:53 AM37.9 °F19.9 °F48 %30.29 in10.0 miNNW (340°)11.5 mphClear
9:53 AM41.0 °F19.0 °F41 %30.30 in10.0 miNW (320°)10.4 mphClear
10:53 AM42.1 °F19.0 °F40 %30.30 in10.0 miNW (310°)6.9 mph16.1 mphMostly Cloudy
11:53 AM43.0 °F17.1 °F35 %30.29 in10.0 miWNW (300°)9.2 mphMostly Cloudy
12:53 PM43.0 °F19.9 °F40 %30.28 in10.0 miNNW (330°)13.8 mph18.4 mphOvercast
1:53 PM43.0 °F21.9 °F43 %30.26 in10.0 miNNW (340°)10.4 mph20.7 mphOvercast
2:53 PM41.0 °F24.1 °F51 %30.26 in10.0 miNNW (340°)11.5 mph18.4 mphMostly Cloudy
3:53 PM42.1 °F24.1 °F49 %30.27 in10.0 miNNW (340°)9.2 mph18.4 mphPartly Cloudy
4:53 PM41.0 °F19.0 °F41 %30.27 in10.0 miNW (310°)11.5 mph18.4 mphPartly Cloudy
5:53 PM37.9 °F18.0 °F45 %30.28 in10.0 miNNW (340°)8.1 mphClear
6:53 PM35.1 °F19.0 °F52 %30.29 in10.0 miNorth (360°)4.6 mphClear
7:53 PM30.9 °F21.0 °F67 %30.30 in10.0 miNE (40°)3.5 mphClear
8:53 PM28.0 °F23.0 °F81 %30.30 in10.0 miCalmClear
9:53 PM28.0 °F21.9 °F78 %30.30 in10.0 miCalmClear
10:53 PM25.0 °F21.0 °F85 %30.30 in10.0 miENE (70°)3.5 mphClear
11:53 PM27.0 °F23.0 °F85 %30.30 in10.0 miCalmOvercast
Hourly data recorded from KGWO, located miles away from Greenwood - Airport, Mississippi







STORIES FROM OUR PARTNERS